Content
SEND FEEDBACK

Daily
Averages
Monthly
Summary
Tunisia

EL AGAREB, TUNISIA


Home > Africa > Tunisia
Elevation: 75 feet     Latitude: 34 43N     Longitude: 010 40E

WEATHER
 
SELECT A DAY
Number of Records: 159,663;   Date Range: 2/20/97 - 9/18/14
 
SHARE

PRINT THIS DATA

[ ← Previous Day ]
WEATHER ALMANAC - JANUARY 31, 2013
[ Next Day → ]
[ °C ]   °F
Weather ElementAverageHighLow
Temperature60 °F76 °F (4:00 pm)44.6 °F (3:00 am)
Dewpoint31.1 °F42.8 °F (8:00 pm)23 °F (3:00 am)
Humidity32.6 %51 % (11:00 pm)9 % (1:00 pm)
Barometer30.30 in30.35 in (10:00 pm)30.24 in (3:00 am)
Wind Speed5.2 mph11.5 mph (1:00 pm)
Weather ElementAverage
Visibility6.1 mi
Wind DirectionSSW (216.8 °)

Weather ElementTotal
Precipitation---
Heating Degree Days4.7 (Base 65)
Growing Degree Days10.3 (Base 50)
Averaged from 25 records on January 31, 2013
WEATHER CONDITIONS BREAKOUT
WIND DIRECTION BREAKOUT
WEATHER BY HOUR - JANUARY 31, 2013
[ °C ]   °F
Local TimeTemperatureDewpointHumidityBarometerVisibilityWind DirectionWind SpeedGust SpeedPrecipitationEventsConditions
1:00 AM48.2 °F24.8 °F40 %30.30 in6.2 miNNW (330°)4.6 mphPartly Cloudy
3:00 AM44.6 °F23.0 °F43 %30.24 in6.2 miVariable1.2 mphPartly Cloudy
4:00 AM46.0 °F23.0 °F28 %30.30 in6.0 miNW (310°)1.2 mphScattered Clouds
4:00 AM46.4 °F23.0 °F40 %30.27 in6.2 miVariable1.2 mphPartly Cloudy
6:00 AM46.4 °F24.8 °F43 %30.27 in6.2 miWNW (300°)4.6 mphPartly Cloudy
7:00 AM48.2 °F24.8 °F40 %30.27 in6.2 miWest (280°)4.6 mphPartly Cloudy
7:00 AM48.0 °F24.0 °F26 %30.30 in6.0 miWest (280°)4.6 mphScattered Clouds
8:00 AM46.4 °F24.8 °F43 %30.30 in6.2 miWest (270°)3.5 mphPartly Cloudy
9:00 AM51.8 °F26.6 °F38 %30.30 in6.2 miSW (220°)2.3 mphPartly Cloudy
10:00 AM62.0 °F26.0 °F15 %30.32 in6.0 miWest (270°)3.5 mphScattered Clouds
10:00 AM62.6 °F26.6 °F26 %30.30 in6.2 miWest (270°)3.5 mphPartly Cloudy
11:00 AM69.8 °F23.0 °F17 %30.30 in6.2 miNW (310°)9.2 mphPartly Cloudy
1:00 PM73.4 °F26.6 °F18 %30.30 in6.2 miNNW (330°)11.5 mphScattered Clouds
1:00 PM73.0 °F26.0 °F9 %30.30 in6.0 miNNW (330°)11.5 mphPartly Cloudy
3:00 PM75.2 °F28.4 °F18 %30.27 in6.2 miNorth (360°)11.5 mphScattered Clouds
4:00 PM76.0 °F36.0 °F14 %30.28 in6.0 miNNE (20°)11.5 mphScattered Clouds
4:00 PM75.2 °F37.4 °F25 %30.27 in6.2 miNNE (20°)11.5 mphPartly Cloudy
6:00 PM66.2 °F39.2 °F37 %30.30 in6.2 miENE (70°)6.9 mphPartly Cloudy
7:00 PM62.6 °F41.0 °F45 %30.30 in6.2 miVariable1.2 mphPartly Cloudy
7:00 PM63.0 °F41.0 °F33 %30.32 in6.0 miEast (100°)1.2 mphScattered Clouds
8:00 PM68.0 °F42.8 °F40 %30.30 in6.2 miNNW (340°)6.9 mphPartly Cloudy
9:00 PM62.6 °F41.0 °F45 %30.33 in6.2 miCalmPartly Cloudy
10:00 PM62.0 °F41.0 °F35 %30.35 in6.0 miNNW (330°)3.5 mphScattered Clouds
10:00 PM62.6 °F41.0 °F45 %30.33 in6.2 miNNW (330°)3.5 mphPartly Cloudy
11:00 PM59.0 °F41.0 °F51 %30.33 in6.2 miNorth (350°)5.8 mphPartly Cloudy
Hourly data recorded from DTTX, located miles away from El Agareb, Tunisia







STORIES FROM OUR PARTNERS